Regional Weather Roundup
Issued by NWS Boston, MA

Current Version | Previous Version | Text Only | Print | Product List | Glossary On
Versions: 1 2 3 4 5 6 7 8 9 10 11 12 13 14 15 16 17 18 19 20 21 22 23 24 25 26
000 ASUS41 KBOX 180310 RWRBOX REGIONAL WEATHER ROUNDUP NATIONAL WEATHER SERVICE TAUNTON MA 1000 PM EST SAT FEB 17 2018 NOTE: "FAIR" INDICATES FEW OR NO CLOUDS BELOW 12,000 FEET WITH NO SIGNIFICANT WEATHER AND/OR OBSTRUCTIONS TO VISIBILITY. MAZALL-180400- EASTERN MASSACHUSETTS CITY SKY/WX TMP DP RH WIND PRES REMARKS BOSTON LGT SNOW 32 30 92 SE10 30.16F FOG WCI 24 BEVERLY LGT SNOW 32 31 96 S13G20 30.15F VSB 1 WCI 22 LAWRENCE LGT SNOW 33 29 85 VRB5 30.16F FOG WCI 29 BEDFORD LGT SNOW 31 29 92 SE9 30.13F FOG WCI 23 BLUE HILL N/A 29 29 100 SE8 30.11F WCI 21 NORWOOD LGT SNOW 33 31 92 SE3 30.16F FOG MARSHFIELD LGT SNOW 34 32 93 SE6 30.17F WCI 29 PLYMOUTH LGT SNOW 33 31 92 SE5 30.16F VSB 3/4 WCI 29 TAUNTON LGT SNOW 33 31 92 SE6 30.15F VSB 3/4 WCI 28 NEW BEDFORD LGT SNOW 33 33 100 SE7 30.15F FOG WCI 27 $$ MAZALL-180400- CAPE COD AND THE ISLANDS CITY SKY/WX TMP DP RH WIND PRES REMARKS FALMOUTH LGT SNOW 32 32 100 SE12 30.17 WCI 23 HYANNIS LGT SNOW 33 31 92 SE7 30.16F VSB 3/4 WCI 27 CHATHAM LGT SNOW 35 33 92 SE9G17 30.18F FOG WCI 28 PROVINCETOWN LGT SNOW 34 32 93 SE10 30.18F FOG WCI 26 NANTUCKET LGT RAIN 36 35 96 E16 30.17F WCI 26 MARTHAS VNYRD LGT SNOW N/A N/A N/A E8 30.15F $$ MAZALL-180400- CENTRAL AND WESTERN MASSACHUSETTS CITY SKY/WX TMP DP RH WIND PRES REMARKS WORCESTER LGT SNOW 27 25 92 SE6 30.08F VSB 3/4 WCI 20 FITCHBURG LGT SNOW 31 29 92 SE5 30.12F VSB 3/4 WCI 26 ORANGE LGT SNOW 28 28 100 CALM 30.11F VSB 3/4 SPRINGFIELD LGT SNOW 29 28 97 CALM 30.10F VSB 1 WESTFIELD SNOW 29 29 100 CALM 30.10F VSB 1/2 NORTH ADAMS LGT SNOW 29 26 89 VRB6 30.08S VSB 3/4 WCI 23 PITTSFIELD SNOW 28 25 88 CALM 30.05R VSB 1/2 $$ RIZALL-180400- RHODE ISLAND CITY SKY/WX TMP DP RH WIND PRES REMARKS PROVIDENCE LGT SNOW 33 33 100 SE5 30.16F VSB 1 WCI 29 NEWPORT LGT SNOW 33 32 96 SE9 30.14F VSB 3/4 WCI 25 BLOCK ISLAND LGT SNOW 33 33 100 E13 30.13F FOG WCI 24 SMITHFIELD LGT SNOW 30 28 93 VRB6 30.12F VSB 1 WCI 24 WESTERLY LGT SNOW 34 34 100 E8 30.11F VSB 1 WCI 27 $$ CTZALL-180400- CONNECTICUT CITY SKY/WX TMP DP RH WIND PRES REMARKS BRADLEY INTL LGT SNOW 29 29 100 CALM 30.11F VSB 1 HARTFORD SNOW 30 29 96 CALM 30.11F VSB 1/2 BRIDGEPORT LGT SNOW 33 31 92 E10 30.08F FOG WCI 25 DANBURY LGT SNOW 32 30 92 N3 30.07F VSB 3/4 GROTON LGT SNOW 34 32 92 E8 30.11F VSB 1 WCI 27 NEW HAVEN LGT SNOW 34 31 88 E9 30.08F FOG WCI 27 CHESTER LGT SNOW 32 32 100 SE5 30.08F WCI 27 MERIDEN LGT SNOW 30 29 96 CALM 30.08F VSB 3/4 WILLIMANTIC LGT SNOW 31 30 96 CALM 30.12F VSB 3/4 OXFORD LGT SNOW 30 29 96 SE6 30.05F VSB 3/4 WCI 24 $$ MEZ002-015-021-024-NHZ003-005-008-011-012-014-VTZ005-008-180400- NORTHERN NEW ENGLAND CITY SKY/WX TMP DP RH WIND PRES REMARKS PORTLAND ME LGT SNOW 33 29 85 S16G32 30.16F VSB 3/4 WCI 23 BANGOR ME CLOUDY 25 16 68 SE6 30.21F WCI 18 CONCORD NH LGT SNOW 29 25 85 S6 30.13F FOG WCI 23 MANCHESTER NH LGT SNOW 30 28 92 S3 30.12F FOG NASHUA NH LGT SNOW 28 28 100 CALM 30.13F FOG PORTSMOUTH NH LGT SNOW 31 29 92 S9 30.14F FOG WCI 23 JAFFREY NH LGT SNOW 28 27 96 CALM 30.07F FOG KEENE NH LGT SNOW 28 26 92 W5 30.13R FOG WCI 23 BURLINGTON VT CLOUDY 33 17 51 S10G25 30.03F WCI 25 MT. WASHINGTON CLOUDY 5 1 85 SW23G38 N/A WCI -17 $$ NYZ052-076-180400- EASTERN NEW YORK CITY SKY/WX TMP DP RH WIND PRES REMARKS ALBANY LGT SNOW 30 26 85 S12 30.08F FOG WCI 20 NEW YORK CITY LGT SNOW 33 32 96 E5 30.07F VSB 1 WCI 29 $$ ANZALL-180400- MARINE OBSERVATIONS STATION/POSITION TIME TEMP WIND PRES VSBY WAVE AIR SEA DIR/SP/G HT/PER (UTC) (F) (DEG/KT/KT) (MB) (MI) (FT/S) BOSTON BUOY 0250 34 40 140/ 16/ 19 1021.0F 3/ 4 BUZZARDS BAY 0200 32 120/ 16/ 17 1022.9F NANTUCKET SOUND 0250 34 37 110/ 17/ 19 1021.4F 2/ 4 MASS BAY-STELLWA 0204 34 39 1022.0F 4/ 4 ISLE OF SHOALS 0200 35 170/ 26/ 29 1022.1F S OF BLOCK IS 0243 38 N/A 4/ 4 $$ ......................KEY......................... SKY/WX - SKY CONDITION/PRESENT WEATHER TMP - TEMPERATURE IN FAHRENHEIT DWPT - DEWPOINT IN FAHRENHEIT RH - RELATIVE HUMIDITY IN PERCENT WIND - DIRECTION AND SPEED IN MPH PRES - MEAN SEA LEVEL PRESSURE IN INCHES OF HG WCI - WIND CHILL INDEX VSB - VISIBILITY IN MILES HX - HEAT INDEX TC - TEMPERATURE IN CELSIUS VRB - VARIABLE WIND DIRECTION N/A - NOT AVAILABLE

USA.gov is the U.S. government's official web portal to all federal, state and local government web resources and services.